Location: Sternwarte Hubelmatt
(47.0367°N, 8.3053°E)
Time: 06:23:56
(UTC+02:00)

TIGRISAT - Visible Passes

Search period start: 16 April 2024 00:00
Search period end: 26 April 2024 00:00
Orbit: 594 x 674 km, 97.7° (Epoch: 15 April)

Date Brightness Start Highest point End Pass type
(mag) Time Alt. Az. Time Alt. Az. Time Alt. Az.
16 Apr ? 04:17:06 10° ESE 04:20:33 22° ENE 04:23:57 10° NNE visible
16 Apr ? 05:52:28 10° S 05:56:44 43° W 06:00:57 10° NNW visible
17 Apr ? 04:38:04 10° SE 04:42:06 34° ENE 04:46:04 10° N visible
18 Apr ? 04:59:21 10° SSE 05:03:42 56° ENE 05:07:59 10° N visible
19 Apr ? 03:47:51 10° E 03:49:34 12° ENE 03:51:16 10° NE visible
19 Apr ? 05:20:54 10° SSE 05:25:21 88° WSW 05:29:44 10° NNW visible
20 Apr ? 04:07:57 10° ESE 04:10:59 19° ENE 04:13:59 10° NNE visible
20 Apr ? 05:42:43 10° S 05:47:03 53° W 05:51:20 10° NNW visible
21 Apr ? 04:28:42 10° SE 04:32:28 28° ENE 04:36:10 10° N visible
22 Apr ? 04:49:49 10° SE 04:54:00 45° ENE 04:58:07 10° N visible
23 Apr ? 05:11:12 10° SSE 05:15:35 75° ENE 05:19:53 10° N visible
24 Apr ? 03:58:46 10° E 04:01:16 15° ENE 04:03:45 10° NNE visible
24 Apr ? 05:32:52 10° S 05:37:13 66° WSW 05:41:31 10° NNW visible
25 Apr ? 04:19:15 10° ESE 04:22:40 23° ENE 04:26:04 10° NNE visible
